Theta_e
286 288 289 289 288 289 289 289 290 290 291 294 297 299 300 303 310 317 321 323 324 324 324 324 324 325 324 324 323 323 323 322 322 322 322 321 321 321 321 321 321 321 320
284 285 286 286 285 285 286 286 287 288 289 290 292 294 297 299 301 304 311 316 321 323 324 324 324 324 324 324 324 323 323 323 322 322 322 321 321 320 321 320 320 319 317
282 283 283 283 282 282 283 283 284 285 286 288 290 291 293 296 298 300 303 308 309 311 316 321 323 324 324 324 324 323 323 323 322 322 322 321 320 320 320 318 317 314 311
280 280 281 281 281 281 282 282 283 283 284 285 288 290 291 293 295 297 299 298 299 301 305 308 312 320 322 323 324 323 323 323 322 322 321 321 315 311 310 310 307 308 310
278 278 279 278 279 279 279 280 281 281 281 282 284 287 290 291 293 294 295 295 296 298 299 301 304 308 312 316 318 322 322 322 321 318 317 309 306 302 305 308 306 308 304
276 277 276 276 276 276 277 277 278 279 279 280 282 284 287 290 291 292 293 295 296 296 297 299 300 301 305 308 311 314 315 317 317 317 313 304 307 310 309 308 303 297 297
275 275 274 274 274 275 275 275 276 277 278 278 280 282 285 287 289 291 293 294 294 295 297 297 298 299 300 301 304 308 310 313 315 313 312 311 311 314 314 302 302 301 302
274 274 274 273 273 273 274 274 275 275 276 277 278 280 282 285 288 289 292 292 293 294 296 297 297 298 299 300 302 303 305 308 311 312 312 312 312 314 313 312 308 300 298
273 272 272 271 272 272 273 273 274 274 275 276 278 280 282 284 287 289 290 291 292 293 294 296 297 297 298 300 300 300 301 304 307 308 310 309 310 309 308 306 299 295 291
271 271 271 271 271 271 272 273 274 274 276 278 279 282 284 286 287 288 290 291 291 292 293 294 295 296 296 297 297 298 296 300 304 303 302 303 304 306 306 305 306 297 290
269 270 270 270 270 271 272 273 273 275 277 280 281 281 281 283 284 287 289 291 291 291 292 292 293 294 294 294 295 296 297 298 299 297 297 298 298 298 299 299 298 299 295
270 270 270 270 270 271 271 272 275 278 279 278 278 278 279 280 282 286 287 289 290 291 291 291 292 292 292 293 294 295 296 294 295 295 294 293 292 292 292 294 295 295 295
269 269 269 270 270 271 271 272 274 275 277 276 276 276 277 278 278 282 285 288 288 288 289 290 290 291 291 292 293 294 294 293 292 291 291 291 291 291 290 291 291 291 292
268 269 269 269 270 271 271 271 273 273 275 275 275 274 275 276 276 279 279 281 285 288 288 288 288 288 289 289 289 289 289 290 290 290 290 289 289 288 288 289 287 288 287
269 268 268 269 269 269 269 269 271 272 274 274 274 273 274 275 275 277 277 277 278 280 281 278 279 280 281 282 283 283 285 286 286 286 286 285 285 285 285 286 285 285 285
268 268 268 268 268 268 267 268 270 271 272 272 273 272 272 273 273 274 274 274 273 273 271 271 271 272 273 274 276 278 279 280 283 284 284 284 284 284 284 284 285 284 284
267 267 267 267 266 266 266 266 266 268 268 269 270 271 271 271 271 271 271 270 270 269 267 267 267 268 269 269 271 271 272 273 277 278 281 282 282 282 282 282 282 283 282
267 266 266 266 265 265 265 265 265 264 264 265 266 269 268 269 269 268 267 266 265 265 264 264 264 265 265 266 267 268 269 269 271 271 272 275 278 280 281 281 281 281 281
266 265 265 265 265 264 264 264 264 263 263 263 263 264 265 265 265 265 264 262 262 262 262 262 262 262 262 263 264 265 266 266 267 268 269 269 271 273 273 275 277 278 280
264 264 263 263 263 263 262 262 262 262 262 262 261 262 264 262 261 261 261 260 260 260 260 261 260 260 261 261 262 263 263 264 264 265 265 267 268 269 269 271 272 273 274
263 263 263 263 262 261 261 261 260 260 260 260 260 261 264 260 260 259 259 259 258 258 258 259 259 259 259 260 260 261 261 262 262 263 263 264 265 266 267 268 268 269 270
263 262 262 261 261 261 260 260 259 259 259 259 259 259 260 258 258 258 258 258 257 258 257 257 258 258 258 258 258 259 259 260 260 261 262 262 263 264 264 265 266 266 267
262 262 262 261 261 260 260 259 259 258 258 258 258 257 257 257 257 257 257 257 257 257 257 257 257 257 257 258 258 258 258 258 259 260 261 261 262 262 262 263 263 264 264
261 261 261 261 261 260 260 259 258 258 257 257 257 257 256 256 256 256 256 256 256 257 257 257 257 257 257 257 257 257 258 258 259 260 261 261 261 261 261 261 262 262 262
261 261 260 260 259 259 259 258 258 258 257 257 256 256 256 256 256 256 256 256 256 256 256 256 257 257 257 257 257 257 257 258 259 260 260 260 260 260 260 260 260 260 261
260 260 260 259 259 259 258 258 258 257 257 257 256 256 256 256 256 256 256 256 255 256 256 256 256 256 257 257 257 257 257 258 259 260 260 259 259 259 259 259 259 259 259
Wind_Speed
28 26 26 26 28 26 28 31 30 31 32 30 27 27 27 26 24 26 26 28 31 31 32 33 35 35 34 32 34 32 31 30 16 27 30 30 31 34 34 35 35 35 35
28 28 25 26 29 27 27 32 31 32 33 31 26 25 26 27 27 27 28 27 27 29 29 30 35 33 34 36 33 31 34 36 32 18 26 25 35 35 38 37 37 35 32
30 30 28 29 33 32 33 34 33 34 33 29 27 26 25 26 27 26 25 25 27 29 28 28 32 30 30 32 33 32 32 33 30 28 24 22 28 32 35 36 35 32 28
29 30 31 34 36 36 36 37 36 36 33 32 28 26 25 25 25 24 23 29 30 31 31 31 32 28 31 31 30 33 31 30 28 28 28 23 21 21 23 20 24 26 25
26 26 27 31 33 34 35 36 37 35 34 32 30 27 24 23 21 26 30 30 30 30 30 32 33 32 36 32 28 29 29 29 26 18 14 9 9 9 13 19 23 24 23
23 22 26 27 28 30 33 35 35 36 35 34 32 26 27 25 27 30 32 34 31 30 30 29 29 32 34 37 35 32 29 28 20 15 11 7 15 19 22 22 19 9 3
20 22 25 26 29 30 30 31 33 36 37 37 33 27 28 28 28 33 34 36 33 32 32 30 32 28 30 32 35 34 32 32 32 25 21 23 21 29 29 23 24 14 11
20 24 29 30 30 29 29 29 33 32 32 34 33 30 32 31 29 35 36 38 33 32 33 35 36 37 34 32 34 34 33 31 28 26 26 30 32 29 28 32 30 23 11
19 22 26 27 27 29 30 31 33 32 32 32 31 33 34 35 33 37 40 36 33 33 34 36 35 35 34 31 31 30 31 31 28 28 29 28 27 26 25 24 19 14 3
24 24 27 26 27 27 30 33 33 32 30 30 31 29 30 34 35 37 39 35 34 31 31 31 33 35 33 26 27 27 22 26 26 25 23 21 20 21 21 25 25 16 6
23 26 27 27 26 24 27 30 29 29 29 27 28 30 31 34 39 38 39 37 32 32 29 27 30 33 31 28 23 24 26 23 18 18 18 15 15 17 19 20 19 25 15
25 26 27 28 26 25 25 25 27 27 23 25 28 30 30 34 36 39 40 38 37 34 29 26 30 31 30 27 24 22 20 18 17 16 16 15 15 14 14 15 15 17 17
24 24 24 26 26 27 26 27 27 28 26 28 29 31 34 36 39 42 42 36 34 32 28 28 27 27 25 21 18 19 15 16 16 15 15 17 19 17 13 13 12 12 11
22 24 25 26 32 33 30 27 25 27 27 27 28 29 32 34 39 40 40 37 32 27 24 17 11 7 8 8 7 7 4 7 10 8 10 15 14 16 17 16 17 19 20
22 23 26 26 28 28 28 24 23 24 24 26 27 28 30 32 39 34 33 35 31 24 19 27 28 24 24 23 21 19 15 11 7 3 3 6 9 12 12 13 16 12 8
21 23 25 25 25 25 24 25 21 20 20 23 25 29 29 30 36 35 30 36 34 27 33 29 28 27 26 26 25 23 25 23 17 11 12 12 12 11 10 8 8 7 10
18 19 21 22 22 23 23 22 23 30 21 22 25 30 31 30 35 37 32 29 38 40 33 29 28 28 27 27 27 27 26 28 25 24 20 15 14 12 10 10 9 8 9
15 16 18 18 19 21 21 22 22 22 23 30 31 27 33 30 31 35 36 35 42 39 31 28 27 27 28 27 28 28 29 31 30 29 28 24 20 13 11 11 11 10 11
14 15 15 16 16 17 19 20 21 22 22 23 29 31 34 28 26 30 33 33 28 28 27 27 27 27 28 28 28 28 27 28 29 28 30 29 27 22 20 18 13 10 9
11 11 12 13 15 17 19 20 22 21 21 21 22 28 29 31 30 30 30 29 26 25 26 25 26 27 27 29 29 28 27 29 29 28 26 26 25 23 21 19 19 14 14
12 13 12 12 14 15 15 17 18 19 19 19 20 23 24 23 22 23 24 25 25 24 25 24 25 26 28 27 27 27 25 25 26 25 24 24 23 22 19 17 15 14 13
13 12 12 12 13 14 15 15 17 18 19 20 21 22 21 24 23 22 23 24 25 23 24 23 23 25 25 25 24 24 23 23 23 23 22 21 20 20 18 17 16 15 13
11 11 11 11 12 13 14 15 17 18 19 20 21 23 24 24 24 23 24 24 25 25 24 23 23 24 23 23 21 21 20 20 20 17 19 19 19 18 17 16 16 15 14
11 11 11 12 13 13 14 16 16 17 18 20 21 22 23 24 24 24 24 24 24 25 23 23 23 23 23 23 21 20 18 16 14 15 17 16 16 16 16 15 14 13 12
12 12 12 13 13 14 15 16 17 18 19 20 21 22 24 24 25 25 25 25 25 26 25 24 23 24 24 23 22 20 18 16 12 14 14 12 17 16 14 13 12 13 11
13 13 13 14 14 14 15 17 18 19 20 21 22 23 24 25 25 25 25 26 26 27 26 26 25 24 23 23 22 20 19 17 17 15 15 18 15 13 13 13 13 13 12
Wind_Direction
19 16 9 7 6 358 355 356 354 349 346 340 338 335 329 321 311 319 299 288 276 267 265 262 254 249 247 244 243 238 236 235 248 255 250 250 255 257 255 254 254 255 255
11 11 5 0 357 355 347 348 349 347 343 338 333 331 331 329 323 315 312 317 298 284 277 265 257 258 253 248 244 241 241 240 241 252 247 240 245 253 258 258 253 252 252
4 4 2 357 354 350 346 345 345 346 340 334 332 329 329 326 326 322 318 314 311 312 309 288 275 269 256 256 251 247 248 248 240 245 252 247 237 238 243 247 250 247 247
0 358 0 353 350 349 346 345 344 343 337 333 328 324 325 323 320 318 320 315 309 303 302 305 303 293 263 262 257 254 250 249 247 241 242 238 229 232 230 240 239 241 235
356 352 351 347 348 347 344 343 342 337 335 330 324 318 321 319 316 318 314 311 308 305 301 299 295 297 292 297 285 264 252 251 252 229 233 201 199 199 211 230 231 235 226
351 343 343 341 339 339 340 339 337 333 332 329 327 320 316 315 318 314 314 306 303 300 297 298 298 296 293 292 290 289 291 284 269 261 224 211 222 229 231 223 211 174 237
343 341 340 341 339 338 333 335 335 332 331 328 326 321 318 312 310 316 318 308 297 294 295 294 295 294 292 293 296 292 285 279 275 267 257 243 239 249 247 219 207 196 203
344 343 345 343 335 333 334 335 333 330 326 324 321 319 315 312 309 311 317 306 297 290 291 295 295 295 295 295 294 292 288 280 272 269 266 267 264 261 254 244 231 206 189
347 344 342 340 334 337 337 334 330 326 326 327 323 319 318 311 310 308 310 306 298 291 292 295 293 291 291 291 286 283 286 279 274 271 271 263 258 253 246 227 186 174 168
349 343 345 342 340 334 334 335 332 331 325 325 324 323 319 317 316 312 310 304 298 295 291 290 295 296 299 298 287 282 269 275 279 265 260 256 248 237 231 226 218 186 141
347 351 354 350 339 335 330 338 330 331 334 338 340 339 334 333 326 319 312 303 297 295 289 290 294 300 303 301 287 273 271 279 276 257 242 235 226 210 204 215 219 214 179
359 1 0 355 349 342 341 342 346 349 351 348 347 346 346 341 341 332 320 310 301 296 287 286 293 299 300 298 290 275 267 263 260 228 219 216 209 202 194 196 205 206 212
358 0 358 1 0 3 358 357 358 357 358 357 355 349 346 346 346 347 343 323 315 306 295 294 294 296 297 297 290 282 272 253 238 208 205 208 214 203 184 170 178 187 190
359 5 4 6 9 12 10 4 1 359 358 -0 359 352 349 350 351 349 353 350 345 323 323 331 346 6 13 12 15 9 337 252 248 251 217 209 197 180 172 168 151 149 133
9 11 9 10 8 3 7 3 1 3 4 1 6 360 356 356 355 352 1 4 4 8 34 29 24 23 24 21 28 36 38 31 35 34 149 152 146 153 151 160 148 141 133
12 13 12 10 8 4 358 355 10 7 10 10 10 11 6 4 4 7 10 19 26 32 39 28 21 19 23 19 12 12 26 24 31 68 91 105 97 104 104 113 131 111 113
12 11 11 13 10 4 360 355 349 2 6 13 16 13 14 9 11 14 14 22 33 41 33 25 24 18 16 21 21 17 13 21 35 36 48 65 87 91 89 86 89 104 110
14 17 12 10 9 8 8 7 3 353 351 351 9 11 10 14 16 19 18 28 26 28 27 23 18 18 16 18 20 20 20 23 29 27 29 38 44 59 67 79 95 107 105
7 9 8 7 11 12 11 9 9 2 356 355 355 8 1 6 16 24 25 29 21 16 15 17 18 17 16 17 23 25 27 27 27 30 30 28 29 39 35 40 46 66 105
6 7 8 10 11 15 14 10 6 4 0 1 357 355 358 5 11 14 19 18 17 13 10 12 13 16 18 22 20 24 26 29 29 26 24 29 30 31 32 33 31 29 39
354 357 2 7 15 14 16 12 8 2 360 359 359 3 1 8 3 8 10 10 9 8 7 6 10 13 16 18 21 20 24 24 22 23 23 21 22 25 26 29 29 30 28
349 350 354 4 6 10 11 12 11 6 1 359 359 2 1 12 6 3 5 5 8 10 9 8 8 11 13 14 13 14 13 13 12 12 14 16 18 18 17 19 19 20 22
339 339 344 355 360 358 1 7 6 3 359 358 359 358 360 0 0 359 358 358 359 2 3 4 3 2 4 6 8 7 5 4 2 7 6 5 6 8 9 10 11 11 9
331 334 340 344 348 351 354 355 355 355 353 353 353 352 352 351 351 350 350 350 350 352 354 355 354 353 352 353 354 354 353 356 358 1 358 359 2 360 360 0 360 356 354
325 328 332 337 340 342 342 344 345 346 346 346 345 345 344 344 344 344 344 344 343 343 345 346 347 345 344 343 343 342 342 347 355 357 349 338 337 340 344 344 343 340 340
320 322 325 327 329 331 334 335 336 337 337 338 337 337 337 337 337 337 338 338 337 336 337 338 340 339 337 336 337 338 339 340 344 336 322 323 332 340 340 339 338 336 333